Location: Les Salelles
(44.4192°N, 4.1044°E)
Time: 17:01:30
(UTC+00:00)

Cosmos 1300 - Pass Details

Date: 20 January 2021
Orbit: 511 x 512 km, 82.5° (Epoch: 25 February)

Event Time Altitude Azimuth Distance (km) Brightness Sun altitude
Rises 17:24:54 0° 350° (N) 2,638 6.2 -8.7°
Reaches altitude 10° 17:27:02 10° 349° (N) 1,747 5.3 -9.1°
Maximum altitude 17:30:52 80° 263° (W) 527 2.8 -9.7°
Drops below altitude 10° 17:34:40 10° 177° (S) 1,730 5.5 -10.4°
Sets 17:36:46 0° 176° (S) 2,611 6.5 -10.7°
